Regional Weather Roundup
Issued by NWS Newport/Morehead, NC

Current Version | Previous Version | Graphics & Text | Print | Product List | Glossary Off
Versions: 1 2 3 4 5 6 7 8 9 10 11 12 13 14 15 16 17 18 19 20 21 22 23 24 25 26 27 28 29 30 31 32 33 34 35 36 37 38 39 40 41 42 43 44 45 46 47 48 49 50

000
ASUS42 KMHX 031324
RWRMHX
WEATHER ROUNDUP FOR EASTERN NORTH CAROLINA
NATIONAL WEATHER SERVICE NEWPORT/MOREHEAD CITY NC
900 AM EDT SUN MAY 03 2015

NOTE: "FAIR" INDICATES FEW OR NO CLOUDS BELOW 12,000 FEET
WITH NO SIGNIFICANT WEATHER AND/OR OBSTRUCTIONS TO VISIBILITY

NCZ015>017-031-032-045>047-102-103-031400-
NORTH COAST

CITY           SKY/WX    TMP DP  RH WIND       PRES   REMARKS
EDENTON        SUNNY     64  54  69 NW7       30.17S
ELIZABETH CITY SUNNY     63  53  70 W10       30.16R
KITTY HAWK     SUNNY     60  55  81 W8        30.14S
MANTEO         SUNNY     62  53  70 NW9       30.16S

$$

NCZ045>047-081-094-103-104-031400-
CENTRAL COAST

CITY           SKY/WX    TMP DP  RH WIND       PRES   REMARKS
FRISCO         SUNNY     61  56  83 W7        30.17R
SWANQUARTER      N/A     64 N/A N/A W6        30.15S

$$

NCZ095-097-098-100-101-031400-
SOUTHERN COAST

CITY           SKY/WX    TMP DP  RH WIND       PRES   REMARKS
BEAUFORT       SUNNY     66  59  78 NW7       30.18R
CEDAR ISLAND     N/A     66 N/A N/A W9        30.21S
JACKSONVILLE   SUNNY     63  55  75 W6        30.18R
PINEY ISLAND   SUNNY    N/A N/A N/A W10       30.17R
WILMINGTON     SUNNY     67  59  75 W5        30.19R


$$

NCZ011>013-027>030-043-044-078>080-089-090>093-098-031400-
COASTAL PLAIN

CITY           SKY/WX    TMP DP  RH WIND       PRES   REMARKS
AHOSKIE        SUNNY     62  53  73 CALM      30.17R
CLINTON        SUNNY     65  57  77 CALM      30.20R
ELIZABETHTOWN  SUNNY     66  57  71 CALM      30.19R
GOLDSBORO      SUNNY     62  55  78 W7        30.17R
GREENVILLE     SUNNY     63  54  72 W3        30.19R
HAVELOCK       SUNNY     65  54  67 W7        30.19R
KENANSVILLE    SUNNY     67  54  64 SW5       30.20R
KINSTON        SUNNY     64  55  72 W7        30.20R
NEW BERN       SUNNY     65  55  70 W6        30.19R
RICHLANDS      SUNNY     66  55  68 SW5       30.19S
ROCKY MOUNT    SUNNY     62  54  74 SW6       30.19R
WASHINGTON     SUNNY     64  54  70 W5        30.18S
WHITEVILLE     SUNNY     66  60  79 CALM      30.19R

$$

AMZ130-135-150-152-154-156-158-170-250-252-270-ANZ085-086-088-633-658-670-031400-
MARINE OBSERVATIONS

STATION/POSITION TIME  TEMP    WIND        PRES    WAVE   SWELL
                       AIR SEA DIR/SP/G            HT/PER HT/PER
                 (UTC) (F)     (DEG/KT/KT) (MB)    (FT/S) (FT/S)
CHESAPEAKE LIGHT 1300   61     280/ 10/ 11 1020.9
64 E VA BEACH    1250   57 60  230/  8/ 12 1020.0    7/10   7/10
DUCK             1300          260/ 10/ 11   N/A
2 E DUCK         1211      54                N/A     5/10   3/11
OREGON INLET     1300   60 56  260/  8/ 11 1021.0
13E OREGON INLT  1300      50                N/A     6/11   5/11
HATTERAS CG      1206   62 60  280/  5/  6 1020.7
DIAMOND BUOY     1250   58 58  310/  4/  6 1021.5    5/11   5/11
CAPE LOOKOUT     1300   67     280/  6/  7 1021.6
BEAUFORT LAB     1206   64 62  280/  1/  4 1020.5
27 SE WRIGHTSVLE 1300   65 71  310/  2/  4   N/A
5 SE WRIGHTSVLE  1208   64 66  300/  4/  6 1021.6
225 S CAPE HAT   1250   67 69   10/ 16/ 17 1021.1    8/11   7/11
41 SE CHARLESTON 1250   69 72  300/  4/  6 1021.5    3/11   3/11

$$



USA.gov is the U.S. government's official web portal to all federal, state and local government web resources and services.